Location: Unspecified
(0.0000°N, 0.0000°E)
Time: 02:51:30
(UTC+00:00)

Hubble Space Telescope - Pass Details

Date: 03 October 2023
Orbit: 518 x 522 km, 28.5° (Epoch: 06 December)

Event Time Altitude Azimuth Distance (km) Brightness Sun altitude
Exits shadow 03:34:20 12° 60° (ENE) 1,631 3.8 -33.6°
Drops below altitude 10° 03:34:49 10° 66° (ENE) 1,736 4.0 -33.5°
Enters shadow 04:34:54 -67° 294° (WNW) 12,339 7.6 -18.5°
Maximum altitude 05:13:10 82° 211° (SSW) 525 0.7 -9.0°
